Location: Amsterdam
(30.7274°N, 84.4357°W)
Time: 19:03:45
(UTC+00:00)

Altair - Pass Details

Date: 14 August 2024
Orbit: 1501 x 1682 km, 47.2° (Epoch: 07 September)

Event Time Altitude Azimuth Distance (km) Brightness Sun altitude
Rises 14:41:46 0° 208° (SSW) 4,920 10.0 45.4°
Reaches altitude 10° 14:45:06 10° 203° (SSW) 3,931 9.7 46.1°
Maximum altitude 14:54:39 49° 132° (SE) 2,044 10.0 48.1°
Drops below altitude 10° 15:04:00 10° 61° (ENE) 3,851 10.2 50.1°
Sets 15:07:12 0° 56° (NE) 4,815 10.4 50.7°
